Terminal Aerodrome Forecast
Issued by NWS St Louis, MO

Home | Current Version | Previous Version | Graphics & Text | Print | Product List | Glossary On
Versions: 1 2 3 4 5 6 7 8 9 10 11 12 13 14 15 16 17 18 19 20 21 22 23 24 25 26 27 28
000
FTUS43 KLSX 250300 AAA
TAFSTL
TAF AMD
KSTL 250311Z 2503/2606 VRB04KT P6SM SCT250
     FM250600 13005KT P6SM BKN250
     FM251500 17010KT P6SM FEW100 BKN250=

USA.gov is the U.S. government's official web portal to all federal, state and local government web resources and services.